Tracking 19562 objects as of 23-Mar-2019
HD Live streaming from Space Station
objects crossing your sky now

FENGYUN 1C DEB

Track FENGYUN 1C DEB now!
10-day predictions


NORAD ID: 31679
Int'l Code: 1999-025CCM
Perigee: 700.6 km
Apogee: 806.6 km
Inclination: 99.0 °
Period: 99.7 minutes
Semi major axis: 7124 km
RCS: 0.0078 m2 (small)
Launch date: May 10, 1999
Source: People's Republic of China (PRC)
Launch site: Taiyaun Space Center, China (TSC)

Note: This is SATELLITE DEBRIS
aabbcc
Your satellite tracking list
Your tracking list is empty




NASA's NSSDC Master Catalog

Two Line Element Set (TLE):
1 31679U 99025CCM 19080.36301249  .00000858  00000-0  25928-3 0  9997
2 31679  98.9711 282.3045 0074346 240.7365 118.6377 14.43648496619736
Source of the keplerian elements: AFSPC